Weather History for KRMG - August, 2013

Change the Weather History Date:

Sunday, August 11, 2013

  Actual Average Record
Temperature  
Mean Temperature 81 °F 79 °F  
Max Temperature 91 °F 90 °F 100 °F (2007)
Min Temperature 70 °F 69 °F 62 °F (2008)
Cooling Degree Days 16 14  
Month to date cooling degree days 156 159  
Year to date cooling degree days 1050 1103  
Since 1 June cooling degree days 907 935  
Growing Degree Days 30 (Base 50)    
Moisture  
Dew Point 73 °F    
Average Humidity 78    
Maximum Humidity 100    
Minimum Humidity 56    
Precipitation  
Precipitation 0.00 in 0.15 in 0.88 in (2001)
Month to date precipitation 0.64 1.50  
Year to date precipitation 26.82 32.79  
Sea Level Pressure  
Sea Level Pressure 30.10 in    
Wind  
Wind Speed 3 mph (NW)    
Max Wind Speed 13 mph    
Max Gust Speed 15 mph    
Visibility 10 miles    
Events Thunderstorm    
T = Trace of Precipitation, MM = Missing Value Source: NWS Daily Summary

Daily Weather History Graph

Daily Weather History Graph

Search for Another Location

Airport or City:

Trip Planner

Search our weather history database for the weather conditions in past years. The results will help you decide how hot, cold, wet, or windy it might be!

Date:

Astronomy

Aug. 11, 2013 Rise Set
Actual Time 6:58 AM EDT 8:32 PM EDT
Civil Twilight 6:32 AM EDT 8:58 PM EDT
Nautical Twilight 5:59 AM EDT 9:30 PM EDT
Astronomical Twilight 5:26 AM EDT 10:04 PM EDT
Moon 11:30 AM EDT (8/11) 11:03 PM EDT (8/11)
Length of Visible Light 14h 26m
Length of Day
13h 33m
Waxing Crescent, 22% of the Moon is Illuminated
Aug 11
Waxing Crescent
Aug 14
First Quarter
Aug 20
Full
Aug 28
Last Quarter
Sep 5
New

Hourly Weather History & Observations

Time (EDT) Temp. Heat Index Dew Point Humidity Pressure Visibility Wind Dir Wind Speed Gust Speed Precip Events Conditions
12:53 AM 73.0 °F - 72.0 °F 96% 30.09 in 10.0 mi Calm Calm - N/A   Clear
1:53 AM 72.0 °F - 72.0 °F 100% 30.10 in 10.0 mi Calm Calm - N/A   Clear
2:53 AM 72.0 °F - 72.0 °F 100% 30.09 in 10.0 mi Calm Calm - N/A   Clear
3:53 AM 71.1 °F - 71.1 °F 100% 30.10 in 10.0 mi Calm Calm - N/A   Mostly Cloudy
4:53 AM 72.0 °F - 72.0 °F 100% 30.11 in 10.0 mi Calm Calm - N/A   Overcast
5:53 AM 71.1 °F - 71.1 °F 100% 30.11 in 10.0 mi Calm Calm - N/A   Partly Cloudy
6:35 AM 69.8 °F - 69.8 °F 100% 30.15 in 10.0 mi Calm Calm - N/A   Scattered Clouds
6:43 AM 71.6 °F - 71.6 °F 100% 30.15 in 10.0 mi Calm Calm - N/A   Mostly Cloudy
6:53 AM 71.1 °F - 70.0 °F 96% 30.12 in 10.0 mi Calm Calm - N/A   Mostly Cloudy
7:53 AM 72.0 °F - 71.1 °F 97% 30.13 in 10.0 mi Calm Calm - N/A   Overcast
8:53 AM 75.0 °F - 73.0 °F 94% 30.14 in 10.0 mi Calm Calm - N/A   Mostly Cloudy
9:09 AM 75.2 °F - 73.4 °F 94% 30.17 in 10.0 mi Calm Calm - N/A   Scattered Clouds
9:53 AM 80.1 °F 84.2 °F 73.0 °F 79% 30.14 in 10.0 mi Calm Calm - N/A   Partly Cloudy
10:53 AM 82.9 °F 89.4 °F 73.9 °F 74% 30.14 in 10.0 mi South 4.6 mph - N/A   Clear
11:53 AM 84.9 °F 92.1 °F 73.9 °F 69% 30.13 in 10.0 mi SSW 3.5 mph - N/A   Clear
12:53 PM 87.1 °F 94.5 °F 73.0 °F 63% 30.11 in 10.0 mi Variable 3.5 mph - N/A   Partly Cloudy
1:53 PM 88.0 °F 94.7 °F 72.0 °F 59% 30.10 in 10.0 mi SW 4.6 mph - N/A   Partly Cloudy
2:15 PM 89.6 °F 98.2 °F 73.4 °F 59% 30.13 in 10.0 mi Variable 4.6 mph - N/A Thunderstorm Partly Cloudy
2:30 PM 89.6 °F 98.2 °F 73.4 °F 59% 30.12 in 10.0 mi WSW 4.6 mph - N/A   Partly Cloudy
2:53 PM 90.0 °F 96.9 °F 72.0 °F 55% 30.08 in 10.0 mi Variable 4.6 mph - N/A   Clear
3:53 PM 87.1 °F 95.4 °F 73.9 °F 65% 30.07 in 10.0 mi North 6.9 mph - N/A   Mostly Cloudy
4:53 PM 88.0 °F 95.6 °F 73.0 °F 61% 30.05 in 10.0 mi NW 8.1 mph - N/A   Clear
5:20 PM 87.8 °F 95.6 °F 73.4 °F 62% 30.07 in 10.0 mi WNW 9.2 mph - N/A Thunderstorm Partly Cloudy
5:37 PM 87.8 °F 93.8 °F 71.6 °F 58% 30.08 in 10.0 mi NNW 6.9 mph - N/A   Partly Cloudy
5:53 PM 88.0 °F 95.6 °F 73.0 °F 61% 30.05 in 10.0 mi NNW 8.1 mph - N/A   Clear
6:53 PM 86.0 °F 93.8 °F 73.9 °F 67% 30.06 in 10.0 mi North 5.8 mph - N/A   Partly Cloudy
7:53 PM 82.9 °F 89.4 °F 73.9 °F 74% 30.06 in 10.0 mi NNE 3.5 mph - N/A   Clear
8:53 PM 79.0 °F - 75.0 °F 88% 30.09 in 10.0 mi SE 3.5 mph - N/A   Clear
9:53 PM 78.1 °F - 75.0 °F 90% 30.09 in 10.0 mi Calm Calm - N/A   Clear
10:53 PM 75.9 °F - 73.9 °F 94% 30.10 in 10.0 mi Calm Calm - N/A   Partly Cloudy
11:53 PM 75.9 °F - 73.9 °F 94% 30.10 in 10.0 mi NNE 3.5 mph - N/A   Clear